Weather Roundup
Issued by NWS

Home | Current Version | Previous Version | Text Only | Print | Product List | Glossary On
Versions: 1 2 3 4 5 6 7 8 9 10 11 12 13 14 15 16 17 18 19 20 21 22 23 24 25 26 27 28 29 30 31 32 33 34 35 36 37 38 39 40 41 42 43 44 45 46 47 48 49 50
000
NZUS93 KARX 270610
HRRWXR

CURRENT HOURLY OBSERVATIONS ACROSS
MUCH OF THE UPPER MISSISSIPPI VALLEY
NATIONAL WEATHER SERVICE LA CROSSE WI
100 AM CDT WED JUL 27 2016


...SOUTHEAST MINNESOTA...


CITY           SKY/WX    TMP DP  RH WIND       PRES   REMARKS
ROCHESTER      CLEAR     68  66  93 S7        30.02F
ROCHESTER/MAYO FAIR      74  66  75 CALM      30.02S
WINONA         PTCLDY    73  70  88 CALM      30.00R
AUSTIN         CLEAR     68  64  88 CALM      30.02S
ALBERT LEA     MOCLDY    73  66  78 SW5       30.02S
DODGE CENTER   CLEAR     70  64  83 SW7       30.02S
PRESTON        CLEAR     69  65  88 SW5       30.03S
OWATONNA       PTCLDY    70  66  88 CALM      30.02R
FARIBAULT      MOCLDY    72  70  94 CALM      30.01S
$$

...ELSEWHERE IN MINNESOTA...


CITY           SKY/WX    TMP DP  RH WIND       PRES   REMARKS
MINNEAPOLIS    CLOUDY    80  68  66 SW6       29.98F
INTNL FALLS    CLOUDY    64  59  83 CALM      30.00S
DULUTH         CLOUDY    71  68  90 N6        29.97S
RED WING       CLEAR     70  66  88 CALM      29.98F
REDWOOD FALLS  PTCLDY    73  68  84 S6        29.98F
MANKATO        CLOUDY    73  66  78 S3        30.00F
WORTHINGTON    CLOUDY    72  66  81 S7        30.02S
FAIRMONT       CLEAR     70  64  83 CALM      29.99F
$$

...SOUTHWEST WISCONSIN...


CITY           SKY/WX    TMP DP  RH WIND       PRES   REMARKS
LA CROSSE      CLEAR     75  71  87 E3        29.99S
PRAIRIE DU CHI CLEAR     68  65  89 CALM      30.01S
BOSCOBEL       FOG       67  66  97 CALM      30.00F VSB 3/4
LONE ROCK      CLEAR     66  65  96 CALM      30.01F
PLATTEVILLE    CLEAR     71  67  88 CALM      30.02F
FORT MC COY    CLEAR     66  65  97 CALM      30.02S
CAMP DOUGLAS   PTCLDY    68  66  93 NW3       30.01R
MAUSTON-NEW LI CLEAR     68  67  96 CALM      30.00S
VIROQUA        FAIR      69  66  92 SW3       30.03F
WIS DELLS      CLEAR     69  64  82 SW5       30.02S
$$

...ELSEWHERE IN WISCONSIN...


CITY           SKY/WX    TMP DP  RH WIND       PRES   REMARKS
MILWAUKEE      CLEAR     74  64  71 SW6       29.99F
MADISON        CLEAR     68  65  90 NW3       30.01S
GREEN BAY      CLEAR     73  70  90 SW6       29.96F
EAU CLAIRE     PTCLDY    73  68  84 CALM      29.99F
BLACK RVR FLS  FAIR      67  67 100 CALM      30.00S
MEDFORD        CLOUDY    71  68  92 W5        30.02S
WAUSAU         MOCLDY    75  67  76 SW7       29.99R
WIS RAPIDS     CLEAR     73  65  75 SW6       30.02R
MARSHFIELD     PTCLDY    73  67  81 W6        30.01S
RICE LAKE      CLOUDY    68  65  89 CALM      30.02S
$$

...NORTHEAST IOWA...


CITY           SKY/WX    TMP DP  RH WIND       PRES   REMARKS
WATERLOO       CLEAR     67  65  93 CALM      30.01F
DUBUQUE        CLEAR     67  65  93 CALM      30.03F
DECORAH        MOCLDY    68  68 100 CALM      30.01S
MASON CITY     CLOUDY    68  65  90 S6        30.04S
CHARLES CITY   CLEAR     68  68 100 SW6       30.04S
OELWEIN        CLEAR     68  66  94 CALM      30.04S
$$

...ELSEWHERE IN IOWA...


CITY           SKY/WX    TMP DP  RH WIND       PRES   REMARKS
DES MOINES     CLEAR     75  65  70 S5        30.01F
IOWA CITY      CLEAR     70  66  87 CALM      30.02S
FORT DODGE     PTCLDY    70  64  83 CALM      30.03S
MARSHALLTOWN   CLEAR     66  64  93 CALM      30.02S
CEDAR RAPIDS   CLEAR     66  66 100 CALM      30.01F
$$

...NORTHERN ILLINOIS...


CITY           SKY/WX    TMP DP  RH WIND       PRES   REMARKS
CHICAGO-OHARE  CLEAR     74  63  68 SW3       30.00F
CHICAGO-MIDWAY CLEAR     77  61  57 CALM      30.00F
MOLINE         CLEAR     68  65  90 CALM      30.00F
ROCKFORD       CLEAR     68  65  90 CALM      30.02S
PEORIA         CLEAR     74  71  91 CALM      30.01S
$$

NOTE: "FAIR" INDICATES FEW OR NO CLOUDS BELOW 12,000 FEET WITH NO
SIGNIFICANT WEATHER AND/OR OBSTRUCTIONS TO VISIBILITY. WIND
SPEEDS ARE IN MILES-PER-HOUR.




USA.gov is the U.S. government's official web portal to all federal, state and local government web resources and services.